Santa Ana, CA

1:10 AM PDT on April 29, 2017 (GMT -0700)
John Wayne-Orange County

Weather History for KSNA - December, 2013

Change the Weather History Date:

Tuesday, December 10, 2013

  Actual Average Record
Temperature  
Mean Temperature 54 °F 56 °F  
Max Temperature 68 °F 66 °F 77 °F (2012)
Min Temperature 39 °F 46 °F 39 °F (2013)
Degree Days  
Heating Degree Days 11 9  
Month to date heating degree days 93 81  
Since 1 July heating degree days 166 234  
Cooling Degree Days 0 0  
Month to date cooling degree days 0 0  
Year to date cooling degree days 1157 876  
Growing Degree Days 2 (Base 50)    
Moisture  
Dew Point 26 °F    
Average Humidity 31    
Maximum Humidity 48    
Minimum Humidity 13    
Precipitation  
Precipitation 0.00 in 0.05 in 0.07 in (2015)
Month to date precipitation 0.14 0.40  
Year to date precipitation 2.87 11.65  
Since 1 July precipitation 0.90  
Snow  
Snow 0.00 in - - ()
Month to date snowfall 0.0  
Year to date snowfall 0.0  
Snow Depth 0.00 in    
Sea Level Pressure  
Sea Level Pressure 30.15 in    
Wind  
Wind Speed 2 mph (SW)    
Max Wind Speed 14 mph    
Max Gust Speed 16 mph    
Visibility 10 miles    
Events      
T = Trace of Precipitation, MM = Missing Value Source: NWS Daily Summary

Daily Weather History Graph

Daily Weather History Graph

Search for Another Location

Airport or City:

Trip Planner

Search our weather history database for the weather conditions in past years. The results will help you decide how hot, cold, wet, or windy it might be!

Date:

Astronomy

Dec. 10, 2013 Rise Set
Actual Time 6:45 AM PST 4:43 PM PST
Civil Twilight 6:17 AM PST 5:10 PM PST
Nautical Twilight 5:46 AM PST 5:42 PM PST
Astronomical Twilight 5:16 AM PST 6:12 PM PST
Moon 12:32 PM PST (12/10) 12:24 AM PST (12/10)
Length of Visible Light 10h 53m
Length of Day
9h 57m
Waxing Gibbous, 63% of the Moon is Illuminated
Dec 10
Waxing Gibbous
Dec 17
Full
Dec 25
Last Quarter
Jan 1
New
Jan 7
First Quarter

Hourly Weather History & Observations

Time (PST) Temp. Windchill Dew Point Humidity Pressure Visibility Wind Dir Wind Speed Gust Speed Precip Events Conditions
12:53 AM 41.0 °F 38.0 °F 21.0 °F 45% 30.24 in 10.0 mi SSW 4.6 mph - N/A   Clear
1:53 AM 42.1 °F 40.2 °F 21.0 °F 43% 30.23 in 10.0 mi NE 3.5 mph - N/A   Clear
2:53 AM 42.1 °F - 19.0 °F 40% 30.22 in 10.0 mi Calm Calm - N/A   Clear
3:53 AM 41.0 °F - 19.9 °F 43% 30.21 in 10.0 mi Calm Calm - N/A   Clear
4:53 AM 39.0 °F - 19.9 °F 46% 30.19 in 10.0 mi Calm Calm - N/A   Clear
5:53 AM 39.9 °F - 21.9 °F 49% 30.20 in 10.0 mi Calm Calm - N/A   Partly Cloudy
6:53 AM 42.1 °F 40.2 °F 23.0 °F 47% 30.21 in 10.0 mi NNE 3.5 mph - N/A   Scattered Clouds
7:53 AM 46.0 °F - 25.0 °F 44% 30.22 in 10.0 mi Calm Calm - N/A   Scattered Clouds
8:53 AM 53.1 °F - 28.0 °F 38% 30.21 in 10.0 mi Calm Calm - N/A   Scattered Clouds
9:53 AM 57.0 °F - 26.1 °F 30% 30.19 in 10.0 mi North 4.6 mph - N/A   Scattered Clouds
10:53 AM 60.1 °F - 21.0 °F 22% 30.17 in 10.0 mi Calm Calm - N/A   Scattered Clouds
11:53 AM 64.0 °F - 14.0 °F 14% 30.14 in 10.0 mi Calm Calm - N/A   Partly Cloudy
12:53 PM 66.9 °F - 16.0 °F 14% 30.10 in 10.0 mi SW 5.8 mph - N/A   Partly Cloudy
1:53 PM 66.0 °F - 21.9 °F 19% 30.09 in 10.0 mi SW 9.2 mph - N/A   Partly Cloudy
2:53 PM 64.0 °F - 33.1 °F 31% 30.09 in 10.0 mi West 6.9 mph - N/A   Partly Cloudy
3:53 PM 64.0 °F - 30.9 °F 29% 30.09 in 10.0 mi SW 4.6 mph - N/A   Clear
4:53 PM 61.0 °F - 34.0 °F 36% 30.09 in 10.0 mi South 4.6 mph - N/A   Clear
5:53 PM 59.0 °F - 39.0 °F 48% 30.09 in 10.0 mi Calm Calm - N/A   Clear
6:53 PM 57.0 °F - 30.9 °F 37% 30.10 in 10.0 mi Calm Calm - N/A   Clear
7:53 PM 54.0 °F - 33.1 °F 45% 30.11 in 10.0 mi SSW 3.5 mph - N/A   Clear
8:53 PM 51.1 °F - 35.1 °F 54% 30.12 in 10.0 mi Calm Calm - N/A   Clear
9:53 PM 48.9 °F - 34.0 °F 56% 30.11 in 10.0 mi NNE 4.6 mph - N/A   Clear
10:53 PM 48.0 °F - 34.0 °F 58% 30.11 in 10.0 mi Calm Calm - N/A   Clear
11:53 PM 46.0 °F - 34.0 °F 63% 30.10 in 10.0 mi Calm Calm - N/A   Clear